This is the latest recevied weather packets stored in our database for station/object KO4DYK. If no packets are shown the sender has not sent any weather packets the latest 10 day(s).
| Time | Temp. | Humidity | Pressure | Rain* | Wind** | Luminosity | Snow |
|---|---|---|---|---|---|---|---|
| 1777217395 | 26.11° C | 69% | 1017.1 hPa | 0 mm | - | 695 W/m² | - |
| 1777217091 | 26.67° C | 69% | 1017.1 hPa | 0 mm | - | 705 W/m² | - |
| 1777216788 | 26.67° C | 70% | 1017.1 hPa | 0 mm | - | 117 W/m² | - |
| 1777216484 | 25.56° C | 70% | 1017.2 hPa | 0 mm | - | 694 W/m² | - |
| 1777216179 | 25.56° C | 70% | 1017.2 hPa | 0 mm | - | 672 W/m² | - |
| 1777215873 | 25.56° C | 71% | 1017.1 hPa | 0 mm | - | 661 W/m² | - |
| 1777215569 | 26.11° C | 69% | 1017.2 hPa | 0 mm | - | 605 W/m² | - |
| 1777215265 | 25.56° C | 72% | 1017.2 hPa | 0 mm | - | 600 W/m² | - |
| 1777214961 | 25° C | 75% | 1017.2 hPa | 0 mm | - | 582 W/m² | - |
| 1777214660 | 23.89° C | 78% | 1017 hPa | 0 mm | - | 575 W/m² | - |
| 1777214355 | 23.33° C | 80% | 1017 hPa | 0 mm | - | 535 W/m² | - |
| 1777214054 | 23.33° C | 82% | 1016.8 hPa | 0 mm | - | 540 W/m² | - |
| 1777213749 | 22.78° C | 84% | 1017.2 hPa | 0 mm | - | 511 W/m² | - |
| 1777213445 | 22.22° C | 86% | 1017.1 hPa | 0 mm | - | 523 W/m² | - |
| 1777213143 | 22.22° C | 85% | 1017.1 hPa | 0 mm | - | 258 W/m² | - |
| 1777212839 | 22.78° C | 86% | 1017.1 hPa | 0 mm | - | 315 W/m² | - |
| 1777212537 | 22.22° C | 86% | 1017.2 hPa | 0 mm | - | 227 W/m² | - |
| 1777212235 | 21.67° C | 87% | 1017.1 hPa | 0 mm | - | 522 W/m² | - |
| 1777211930 | 21.67° C | 89% | 1017 hPa | 0 mm | - | 378 W/m² | - |
| 1777211630 | 21.11° C | 93% | 1017 hPa | 0 mm | - | 429 W/m² | - |
| 1777211326 | 20° C | 95% | 1017.1 hPa | 0 mm | - | 337 W/m² | - |
| 1777211022 | 20° C | 97% | 1016.9 hPa | 0 mm | - | 205 W/m² | - |
| 1777210718 | 19.44° C | 97% | 1017.1 hPa | 0 mm | - | 171 W/m² | - |
| 1777210413 | 18.89° C | 99% | 1017 hPa | 0 mm | - | 156 W/m² | - |
| 1777210110 | 18.89° C | 99% | 1016.9 hPa | 0 mm | - | 143 W/m² | - |
* Rain latest hour (hover to see other rain measurements)
** Current wind speed in m/s (hover to see current wind gust speed)